BAW2WP EDDH-EGKK

Flight info

Callsign BAW2WP
Flight time 1h 20m
Altitude 38000
Route WSN5G WSN N125 ONTAZ DCT GALSO Q63 ARREK Y4 TEBRA
Aircraft A20N/M-SDE2E3FGHIRWXY/LB1

Departure

Time 2026-05-06 15:36
Airport Hamburg Helmut Schmidt Airport (EDDH)

Arrival

Time 2026-05-06 16:56
Airport London Gatwick Airport (EGKK)
Time Latitude Longitude Altitude Speed Heading
2026-05-06 14:57 53.63032 10.00349 50 ft 0 kts 122°
2026-05-06 14:58 53.62968 10.00276 51 ft 0 kts 122°
2026-05-06 14:58 53.62966 10.00285 50 ft 0 kts 121°
2026-05-06 15:06 53.62964 10.00293 50 ft 0 kts 121°
2026-05-06 15:28 53.62969 10.00279 49 ft 2 kts 121°
2026-05-06 15:28 53.62977 10.00256 48 ft 2 kts 123°
2026-05-06 15:28 53.62987 10.00232 47 ft 2 kts 124°
2026-05-06 15:29 53.62996 10.00210 48 ft 2 kts 126°
2026-05-06 15:29 53.63006 10.00187 48 ft 2 kts 129°
2026-05-06 15:29 53.63013 10.00173 47 ft 2 kts 134°
2026-05-06 15:29 53.63031 10.00151 48 ft 2 kts 174°
2026-05-06 15:30 53.63041 10.00152 49 ft 1 kts 210°
2026-05-06 15:30 53.63044 10.00155 45 ft 0 kts 213°
2026-05-06 15:31 53.63043 10.00154 45 ft 1 kts 213°
2026-05-06 15:31 53.63013 10.00121 49 ft 10 kts 213°
2026-05-06 15:32 53.62898 9.99918 50 ft 2 kts 243°
2026-05-06 15:32 53.62891 9.99895 47 ft 6 kts 243°
2026-05-06 15:33 53.62865 9.99774 47 ft 13 kts 279°
2026-05-06 15:33 53.62893 9.99724 49 ft 3 kts 332°
2026-05-06 15:33 53.62896 9.99721 49 ft 0 kts 331°
2026-05-06 15:35 53.63069 9.99570 49 ft 65 kts 332°
2026-05-06 15:35 53.63667 9.99054 49 ft 124 kts 333°
2026-05-06 15:35 53.64553 9.98282 240 ft 150 kts 335°
2026-05-06 15:36 53.65454 9.97472 825 ft 151 kts 336°
2026-05-06 15:36 53.66568 9.96503 1209 ft 187 kts 337°
2026-05-06 15:36 53.67713 9.95499 2105 ft 182 kts 338°
2026-05-06 15:36 53.68906 9.94455 2317 ft 221 kts 339°
2026-05-06 15:37 53.70453 9.92989 1981 ft 283 kts 323°
2026-05-06 15:37 53.71672 9.90193 2737 ft 305 kts 295°
2026-05-06 15:37 53.72140 9.86711 3289 ft 301 kts 273°
2026-05-06 15:37 53.71758 9.83382 3556 ft 288 kts 246°
2026-05-06 15:38 53.71315 9.81983 3686 ft 285 kts 238°
2026-05-06 15:38 53.70233 9.79207 4296 ft 283 kts 236°
2026-05-06 15:38 53.69238 9.76338 5428 ft 280 kts 242°
2026-05-06 15:38 53.68404 9.73352 6620 ft 283 kts 247°
2026-05-06 15:39 53.67684 9.70237 7664 ft 287 kts 250°
2026-05-06 15:39 53.67032 9.67082 8589 ft 293 kts 252°
2026-05-06 15:39 53.66377 9.63765 9051 ft 292 kts 252°
2026-05-06 15:39 53.65750 9.60550 9372 ft 292 kts 252°
2026-05-06 15:40 53.64937 9.57395 9611 ft 293 kts 242°
2026-05-06 15:40 53.63807 9.54528 9774 ft 294 kts 234°
2026-05-06 15:40 53.62597 9.51743 9958 ft 296 kts 234°
2026-05-06 15:40 53.61345 9.48832 10155 ft 319 kts 234°
2026-05-06 15:41 53.60015 9.45733 10600 ft 338 kts 234°
2026-05-06 15:41 53.58622 9.42490 11467 ft 343 kts 234°
2026-05-06 15:41 53.57220 9.39221 12413 ft 346 kts 233°
2026-05-06 15:41 53.55796 9.35905 13325 ft 351 kts 232°
2026-05-06 15:42 53.54357 9.32565 14161 ft 355 kts 232°
2026-05-06 15:42 53.52906 9.29202 15016 ft 356 kts 232°
2026-05-06 15:42 53.51437 9.25808 15838 ft 359 kts 232°
2026-05-06 15:42 53.49980 9.22444 16640 ft 362 kts 232°
2026-05-06 15:43 53.48492 9.19012 17449 ft 365 kts 233°
2026-05-06 15:43 53.46986 9.15545 18220 ft 369 kts 233°
2026-05-06 15:43 53.45464 9.12048 18901 ft 373 kts 233°
2026-05-06 15:43 53.43925 9.08515 19588 ft 376 kts 233°
2026-05-06 15:44 53.42372 9.04954 20246 ft 380 kts 233°
2026-05-06 15:44 53.40803 9.01363 20903 ft 383 kts 233°
2026-05-06 15:44 53.39216 8.97737 21542 ft 387 kts 233°
2026-05-06 15:44 53.37637 8.94130 22178 ft 390 kts 233°
2026-05-06 15:45 53.36030 8.90430 22811 ft 394 kts 235°
2026-05-06 15:45 53.34623 8.86458 23441 ft 398 kts 243°
2026-05-06 15:45 53.33517 8.82175 23989 ft 402 kts 249°
2026-05-06 15:45 53.32558 8.77755 24519 ft 405 kts 249°
2026-05-06 15:46 53.31586 8.73314 25027 ft 409 kts 249°
2026-05-06 15:46 53.30608 8.68882 25545 ft 411 kts 249°
2026-05-06 15:46 53.29605 8.64359 26061 ft 415 kts 249°
2026-05-06 15:46 53.28605 8.59812 26553 ft 418 kts 249°
2026-05-06 15:47 53.27604 8.55236 27031 ft 421 kts 249°
2026-05-06 15:47 53.26591 8.50614 27503 ft 424 kts 249°
2026-05-06 15:47 53.25610 8.45948 27973 ft 427 kts 251°
2026-05-06 15:47 53.24729 8.41249 28405 ft 431 kts 252°
2026-05-06 15:48 53.23846 8.36390 28826 ft 433 kts 252°
2026-05-06 15:48 53.22973 8.31622 29223 ft 436 kts 252°
2026-05-06 15:48 53.22070 8.26766 29608 ft 439 kts 251°
2026-05-06 15:48 53.21150 8.21887 29991 ft 442 kts 251°
2026-05-06 15:49 53.20216 8.16966 30358 ft 444 kts 251°
2026-05-06 15:49 53.19278 8.12054 30784 ft 444 kts 251°
2026-05-06 15:49 53.18339 8.07117 31216 ft 445 kts 251°
2026-05-06 15:49 53.17426 8.02265 31691 ft 443 kts 251°
2026-05-06 15:50 53.16503 7.97367 32238 ft 440 kts 251°
2026-05-06 15:50 53.15588 7.92520 32787 ft 437 kts 251°
2026-05-06 15:50 53.14673 7.87696 33289 ft 435 kts 251°
2026-05-06 15:50 53.13766 7.82929 33776 ft 433 kts 251°
2026-05-06 15:51 53.12938 7.78592 34145 ft 431 kts 251°
2026-05-06 15:51 53.12147 7.74455 34440 ft 431 kts 251°
2026-05-06 15:51 53.11234 7.69696 34761 ft 430 kts 251°
2026-05-06 15:51 53.10568 7.66231 34992 ft 430 kts 251°
2026-05-06 15:52 53.09830 7.62404 35234 ft 430 kts 251°
2026-05-06 15:52 53.08912 7.57657 35548 ft 429 kts 251°
2026-05-06 15:52 53.07994 7.52920 35835 ft 429 kts 251°
2026-05-06 15:52 53.07157 7.48617 36093 ft 429 kts 251°
2026-05-06 15:53 53.06174 7.43572 36406 ft 429 kts 251°
2026-05-06 15:53 53.05251 7.38846 36684 ft 428 kts 251°
2026-05-06 15:53 53.04331 7.34144 36985 ft 428 kts 251°
2026-05-06 15:53 53.03408 7.29439 37252 ft 428 kts 251°
2026-05-06 15:54 53.02490 7.24776 37497 ft 428 kts 251°
2026-05-06 15:54 53.01451 7.20139 37754 ft 427 kts 246°
2026-05-06 15:54 53.00187 7.15682 37875 ft 426 kts 243°
2026-05-06 15:54 52.98876 7.11263 37901 ft 425 kts 243°
2026-05-06 15:55 52.96277 7.02453 37897 ft 425 kts 243°
2026-05-06 15:55 52.93676 6.93622 37899 ft 426 kts 243°
2026-05-06 15:56 52.91081 6.84849 37898 ft 426 kts 243°
2026-05-06 15:56 52.88465 6.76049 37900 ft 426 kts 243°
2026-05-06 15:57 52.85851 6.67287 37897 ft 426 kts 243°
2026-05-06 15:57 52.83214 6.58483 37897 ft 426 kts 243°
2026-05-06 15:58 52.80581 6.49724 37899 ft 426 kts 243°
2026-05-06 15:58 52.77954 6.41018 37890 ft 427 kts 243°
2026-05-06 15:59 52.75321 6.32320 37895 ft 427 kts 243°
2026-05-06 15:59 52.72673 6.23609 37894 ft 427 kts 243°
2026-05-06 16:00 52.69999 6.14841 37897 ft 427 kts 243°
2026-05-06 16:00 52.67319 6.06085 37892 ft 427 kts 243°
2026-05-06 16:01 52.64644 5.97378 37890 ft 427 kts 243°
2026-05-06 16:01 52.61946 5.88631 37891 ft 427 kts 242°
2026-05-06 16:02 52.59264 5.79964 37901 ft 428 kts 242°
2026-05-06 16:02 52.56558 5.71250 37906 ft 427 kts 242°
2026-05-06 16:03 52.53842 5.62537 37909 ft 427 kts 242°
2026-05-06 16:03 52.51161 5.53964 37915 ft 428 kts 242°
2026-05-06 16:04 52.48444 5.45308 37909 ft 428 kts 242°
2026-05-06 16:04 52.45704 5.36612 37913 ft 429 kts 242°
2026-05-06 16:05 52.42956 5.27921 37907 ft 429 kts 242°
2026-05-06 16:05 52.40271 5.19457 37920 ft 429 kts 242°
2026-05-06 16:06 52.37502 5.10760 37917 ft 430 kts 242°
2026-05-06 16:06 52.34727 5.02075 37912 ft 430 kts 242°
2026-05-06 16:07 52.31960 4.93446 37922 ft 430 kts 242°
2026-05-06 16:07 52.29187 4.84828 37920 ft 430 kts 242°
2026-05-06 16:08 52.26385 4.76152 37921 ft 430 kts 242°
2026-05-06 16:08 52.23603 4.67568 37919 ft 430 kts 242°
2026-05-06 16:09 52.20797 4.58938 37912 ft 430 kts 242°
2026-05-06 16:09 52.17983 4.50315 37909 ft 430 kts 242°
2026-05-06 16:10 52.15181 4.41760 37907 ft 430 kts 241°
2026-05-06 16:10 52.12356 4.33164 37907 ft 430 kts 241°
2026-05-06 16:11 52.09525 4.24579 37906 ft 430 kts 241°
2026-05-06 16:11 52.06690 4.16010 37911 ft 430 kts 241°
2026-05-06 16:12 52.03859 4.07485 37909 ft 430 kts 241°
2026-05-06 16:12 52.01026 3.98982 37905 ft 430 kts 241°
2026-05-06 16:13 51.98658 3.91898 37901 ft 429 kts 241°
2026-05-06 16:13 51.95332 3.81981 37905 ft 429 kts 241°
2026-05-06 16:14 51.92951 3.74904 37907 ft 428 kts 241°
2026-05-06 16:14 51.89617 3.65031 37906 ft 429 kts 241°
2026-05-06 16:15 51.87228 3.57980 37909 ft 429 kts 240°
2026-05-06 16:15 51.84348 3.49505 37914 ft 430 kts 240°
2026-05-06 16:16 51.81458 3.41032 37919 ft 430 kts 240°
2026-05-06 16:16 51.78564 3.32574 37923 ft 430 kts 240°
2026-05-06 16:17 51.75676 3.24118 37924 ft 430 kts 242°
2026-05-06 16:17 51.73435 3.15218 37932 ft 432 kts 253°
2026-05-06 16:18 51.72261 3.05696 37934 ft 433 kts 261°
2026-05-06 16:18 51.71456 2.96103 37858 ft 431 kts 261°
2026-05-06 16:19 51.71048 2.91379 37397 ft 431 kts 261°
2026-05-06 16:19 51.70638 2.86682 36655 ft 434 kts 261°
2026-05-06 16:19 51.70210 2.81827 35748 ft 438 kts 261°
2026-05-06 16:19 51.69775 2.76919 34800 ft 443 kts 261°
2026-05-06 16:20 51.69336 2.71993 33952 ft 445 kts 261°
2026-05-06 16:20 51.68893 2.67041 33005 ft 446 kts 260°
2026-05-06 16:20 51.68449 2.62080 31971 ft 448 kts 260°
2026-05-06 16:20 51.68000 2.57077 30939 ft 451 kts 260°
2026-05-06 16:21 51.67554 2.52129 29965 ft 453 kts 260°
2026-05-06 16:21 51.67097 2.47092 28903 ft 453 kts 260°
2026-05-06 16:21 51.66641 2.42095 28246 ft 445 kts 260°
2026-05-06 16:21 51.66192 2.37195 27805 ft 434 kts 260°
2026-05-06 16:22 51.65754 2.32437 27226 ft 426 kts 260°
2026-05-06 16:22 51.65320 2.27754 26653 ft 420 kts 260°
2026-05-06 16:22 51.64890 2.23142 26101 ft 413 kts 260°
2026-05-06 16:22 51.64469 2.18640 25505 ft 408 kts 260°
2026-05-06 16:23 51.64048 2.14153 24975 ft 402 kts 260°
2026-05-06 16:23 51.63630 2.09730 24433 ft 397 kts 261°
2026-05-06 16:23 51.63219 2.05330 23856 ft 394 kts 261°
2026-05-06 16:23 51.62818 2.01000 23233 ft 391 kts 261°
2026-05-06 16:24 51.62418 1.96708 22719 ft 384 kts 261°
2026-05-06 16:24 51.62038 1.92613 22187 ft 378 kts 261°
2026-05-06 16:24 51.61624 1.88342 21663 ft 372 kts 258°
2026-05-06 16:24 51.60885 1.84491 21142 ft 368 kts 247°
2026-05-06 16:25 51.59676 1.80951 20629 ft 364 kts 236°
2026-05-06 16:25 51.58072 1.77809 20077 ft 362 kts 229°
2026-05-06 16:25 51.56404 1.74805 19570 ft 358 kts 229°
2026-05-06 16:25 51.54754 1.71822 19061 ft 355 kts 229°
2026-05-06 16:26 51.53116 1.68854 18486 ft 355 kts 229°
2026-05-06 16:26 51.51505 1.65935 17973 ft 352 kts 229°
2026-05-06 16:26 51.49949 1.62930 17460 ft 348 kts 235°
2026-05-06 16:26 51.48672 1.59649 16946 ft 344 kts 243°
2026-05-06 16:27 51.47709 1.56166 16457 ft 340 kts 251°
2026-05-06 16:27 51.47014 1.52552 15941 ft 337 kts 254°
2026-05-06 16:27 51.46297 1.48981 15471 ft 334 kts 251°
2026-05-06 16:27 51.45497 1.45536 15040 ft 331 kts 250°
2026-05-06 16:28 51.44660 1.42103 14611 ft 330 kts 247°
2026-05-06 16:28 51.43537 1.38877 14045 ft 333 kts 235°
2026-05-06 16:28 51.42022 1.36074 13729 ft 327 kts 225°
2026-05-06 16:28 51.40309 1.33767 13512 ft 317 kts 218°
2026-05-06 16:29 51.38582 1.31665 13299 ft 307 kts 218°
2026-05-06 16:29 51.36904 1.29686 13074 ft 298 kts 217°
2026-05-06 16:29 51.35229 1.27798 12857 ft 290 kts 215°
2026-05-06 16:29 51.33603 1.26105 12677 ft 281 kts 213°
2026-05-06 16:30 51.31961 1.24574 12696 ft 264 kts 210°
2026-05-06 16:30 51.30944 1.23709 12462 ft 264 kts 208°
2026-05-06 16:30 51.28837 1.21877 12204 ft 252 kts 212°
2026-05-06 16:30 51.27445 1.20279 11964 ft 246 kts 220°
2026-05-06 16:31 51.26121 1.18578 11708 ft 243 kts 220°
2026-05-06 16:31 51.24793 1.16879 11420 ft 246 kts 219°
2026-05-06 16:31 51.23438 1.15182 11141 ft 249 kts 219°
2026-05-06 16:31 51.22055 1.13515 10968 ft 247 kts 218°
2026-05-06 16:32 51.20683 1.11888 10827 ft 244 kts 218°
2026-05-06 16:32 51.19344 1.10295 10683 ft 241 kts 218°
2026-05-06 16:32 51.18014 1.08688 10538 ft 238 kts 218°
2026-05-06 16:32 51.16698 1.07089 10396 ft 236 kts 219°
2026-05-06 16:33 51.15393 1.05526 10231 ft 233 kts 218°
2026-05-06 16:33 51.14082 1.04008 10073 ft 231 kts 217°
2026-05-06 16:33 51.12762 1.02558 9903 ft 229 kts 215°
2026-05-06 16:34 51.10221 0.99552 9570 ft 225 kts 220°
2026-05-06 16:34 51.08987 0.98032 9390 ft 223 kts 219°
2026-05-06 16:34 51.07766 0.96562 9203 ft 221 kts 222°
2026-05-06 16:34 51.06776 0.94729 9004 ft 216 kts 239°
2026-05-06 16:35 51.05989 0.92680 8851 ft 220 kts 244°
2026-05-06 16:35 51.05271 0.90433 8787 ft 234 kts 246°
2026-05-06 16:35 51.04533 0.88015 8632 ft 252 kts 246°
2026-05-06 16:35 51.03748 0.85460 8510 ft 261 kts 245°
2026-05-06 16:36 51.02915 0.82877 8379 ft 269 kts 244°
2026-05-06 16:36 51.02021 0.80223 8255 ft 275 kts 243°
2026-05-06 16:36 51.01073 0.77538 8143 ft 281 kts 242°
2026-05-06 16:36 51.00074 0.74827 8022 ft 287 kts 242°
2026-05-06 16:37 50.99094 0.72043 7917 ft 291 kts 244°
2026-05-06 16:37 50.98197 0.69126 7814 ft 295 kts 246°
2026-05-06 16:37 50.97309 0.66213 7706 ft 299 kts 245°
2026-05-06 16:37 50.96372 0.63283 7514 ft 295 kts 244°
2026-05-06 16:38 50.95444 0.60465 7395 ft 283 kts 244°
2026-05-06 16:38 50.94541 0.57737 7152 ft 276 kts 244°
2026-05-06 16:38 50.93643 0.55061 6826 ft 272 kts 244°
2026-05-06 16:38 50.92756 0.52448 6623 ft 265 kts 244°
2026-05-06 16:39 50.91881 0.49926 6427 ft 263 kts 244°
2026-05-06 16:39 50.91297 0.47241 6341 ft 255 kts 262°
2026-05-06 16:39 50.91197 0.44477 6307 ft 250 kts 279°
2026-05-06 16:39 50.91566 0.41735 6260 ft 261 kts 287°
2026-05-06 16:40 50.92066 0.38865 6038 ft 278 kts 288°
2026-05-06 16:40 50.92630 0.35923 5777 ft 277 kts 292°
2026-05-06 16:40 50.93375 0.33122 5524 ft 275 kts 297°
2026-05-06 16:40 50.94220 0.30457 5287 ft 273 kts 299°
2026-05-06 16:41 50.95058 0.27767 5100 ft 270 kts 297°
2026-05-06 16:41 50.95832 0.25093 4995 ft 264 kts 296°
2026-05-06 16:41 50.96545 0.22436 4860 ft 259 kts 294°
2026-05-06 16:41 50.97169 0.19814 4732 ft 249 kts 292°
2026-05-06 16:42 50.97780 0.17296 4573 ft 239 kts 297°
2026-05-06 16:42 50.98531 0.14990 4402 ft 232 kts 300°
2026-05-06 16:42 50.99250 0.12730 4232 ft 226 kts 298°
2026-05-06 16:42 50.99899 0.10481 3979 ft 225 kts 296°
2026-05-06 16:43 51.00494 0.08146 3706 ft 229 kts 294°
2026-05-06 16:43 51.01078 0.05786 3572 ft 229 kts 294°
2026-05-06 16:43 51.01641 0.03432 3497 ft 226 kts 291°
2026-05-06 16:43 51.01922 0.00983 3394 ft 226 kts 276°
2026-05-06 16:44 51.02021 -0.01484 3311 ft 222 kts 275°
2026-05-06 16:44 51.02111 -0.03906 3228 ft 224 kts 276°
2026-05-06 16:44 51.02203 -0.06407 3176 ft 229 kts 276°
2026-05-06 16:44 51.02293 -0.08956 3119 ft 231 kts 275°
2026-05-06 16:45 51.02348 -0.11446 3031 ft 219 kts 275°
2026-05-06 16:45 51.02432 -0.13795 2989 ft 208 kts 276°
2026-05-06 16:45 51.02516 -0.16005 3011 ft 188 kts 280°
2026-05-06 16:45 51.02655 -0.17938 3049 ft 166 kts 277°
2026-05-06 16:46 51.02752 -0.19699 2990 ft 156 kts 277°
2026-05-06 16:46 51.02818 -0.21386 2800 ft 151 kts 277°
2026-05-06 16:46 51.02881 -0.23038 2636 ft 149 kts 277°
2026-05-06 16:46 51.02915 -0.24724 2534 ft 156 kts 275°
2026-05-06 16:47 51.02961 -0.26445 2451 ft 159 kts 275°
2026-05-06 16:47 51.03004 -0.28191 2554 ft 156 kts 275°
2026-05-06 16:47 51.03048 -0.29885 2612 ft 152 kts 276°
2026-05-06 16:47 51.03095 -0.31576 2615 ft 153 kts 276°
2026-05-06 16:48 51.03137 -0.33247 2613 ft 152 kts 276°
2026-05-06 16:48 51.03180 -0.34899 2678 ft 144 kts 278°
2026-05-06 16:48 51.03224 -0.36463 2746 ft 138 kts 275°
2026-05-06 16:48 51.03238 -0.37952 2846 ft 137 kts 275°
2026-05-06 16:49 51.03279 -0.39525 2899 ft 153 kts 278°
2026-05-06 16:49 51.03358 -0.41270 2907 ft 160 kts 277°
2026-05-06 16:49 51.03445 -0.43029 2990 ft 158 kts 279°
2026-05-06 16:49 51.03531 -0.44748 3110 ft 155 kts 277°
2026-05-06 16:50 51.03872 -0.46293 3276 ft 149 kts 307°
2026-05-06 16:50 51.04549 -0.47503 3423 ft 144 kts 317°
2026-05-06 16:50 51.05232 -0.48657 3545 ft 142 kts 315°
2026-05-06 16:50 51.05686 -0.49404 3597 ft 141 kts 324°
2026-05-06 16:51 51.06905 -0.49844 3738 ft 139 kts
2026-05-06 16:51 51.07899 -0.49553 3773 ft 154 kts 13°
2026-05-06 16:51 51.08873 -0.49062 3627 ft 142 kts 22°
2026-05-06 16:51 51.09710 -0.48272 3537 ft 137 kts 38°
2026-05-06 16:52 51.10342 -0.47178 3488 ft 132 kts 49°
2026-05-06 16:52 51.10826 -0.45911 3420 ft 137 kts 63°
2026-05-06 16:52 51.11081 -0.44450 3338 ft 141 kts 76°
2026-05-06 16:52 51.11253 -0.42901 3298 ft 142 kts 75°
2026-05-06 16:53 51.11489 -0.41371 3203 ft 144 kts 71°
2026-05-06 16:53 51.11738 -0.39800 2898 ft 149 kts 72°
2026-05-06 16:53 51.12007 -0.38109 2380 ft 156 kts 73°
2026-05-06 16:53 51.12297 -0.36238 1956 ft 165 kts 72°
2026-05-06 16:54 51.12553 -0.34558 1770 ft 155 kts 71°
2026-05-06 16:54 51.12849 -0.32865 1722 ft 160 kts 70°
2026-05-06 16:54 51.13122 -0.31251 1418 ft 149 kts 73°
2026-05-06 16:54 51.13354 -0.29714 1170 ft 142 kts 75°
2026-05-06 16:55 51.13584 -0.28038 1110 ft 150 kts 75°
2026-05-06 16:55 51.13782 -0.26541 1019 ft 129 kts 74°
2026-05-06 16:55 51.13984 -0.25111 799 ft 137 kts 72°
2026-05-06 16:55 51.14205 -0.23591 600 ft 142 kts 74°
2026-05-06 16:56 51.14403 -0.22061 411 ft 144 kts 75°
2026-05-06 16:56 51.14610 -0.20548 234 ft 131 kts 74°
2026-05-06 16:56 51.14800 -0.19348 216 ft 73 kts 76°
2026-05-06 16:56 51.14863 -0.18769 206 ft 44 kts 76°
2026-05-06 16:57 51.14921 -0.18569 214 ft 18 kts 55°
2026-05-06 16:57 51.15000 -0.18400 209 ft 20 kts 51°
2026-05-06 16:57 51.15035 -0.18331 211 ft 2 kts 52°
2026-05-06 16:57 51.15035 -0.18329 210 ft 0 kts 52°
2026-05-06 17:00 51.15037 -0.18326 209 ft 2 kts 52°
2026-05-06 17:00 51.15068 -0.18266 209 ft 12 kts 51°
2026-05-06 17:00 51.15126 -0.18198 207 ft 11 kts
2026-05-06 17:01 51.15195 -0.18172 208 ft 10 kts 50°
2026-05-06 17:01 51.15218 -0.18053 210 ft 13 kts 79°
2026-05-06 17:01 51.15239 -0.17897 205 ft 16 kts 77°
2026-05-06 17:01 51.15266 -0.17712 208 ft 18 kts 77°
2026-05-06 17:02 51.15295 -0.17503 207 ft 21 kts 80°
2026-05-06 17:02 51.15350 -0.17358 212 ft 13 kts 46°
2026-05-06 17:02 51.15384 -0.17217 204 ft 15 kts 75°
2026-05-06 17:02 51.15418 -0.17053 212 ft 17 kts 78°
2026-05-06 17:03 51.15445 -0.16858 204 ft 16 kts 78°
2026-05-06 17:03 51.15446 -0.16725 208 ft 12 kts 94°
2026-05-06 17:03 51.15476 -0.16649 207 ft 8 kts
2026-05-06 17:03 51.15517 -0.16658 211 ft 5 kts 348°
2026-05-06 17:04 51.15526 -0.16662 204 ft 0 kts 347°
2026-05-06 17:04 51.15530 -0.16663 204 ft 1 kts 347°
2026-05-06 17:04 51.15531 -0.16663 204 ft 0 kts 347°